Terminal Aerodrome Forecast
Issued by NWS

Home | Current Version | Previous Version | Text Only | Print | Product List | Glossary On
Versions: 1 2 3 4 5 6 7 8 9 10 11 12 13 14 15 16 17 18 19 20 21 22 23 24 25 26 27 28 29 30 31 32 33 34 35 36 37 38 39 40 41 42 43 44 45 46 47 48 49 50
000
FTUS42 KMFL 261926 AAA
TAFTMB
TAF AMD
KTMB 261926Z 2619/2718 33013KT P6SM SCT016 OVC030
      TEMPO 2619/2621 BKN016
     FM262300 33007KT P6SM FEW010 SCT025 BKN120
     FM270100 32005KT P6SM FEW250=

USA.gov is the U.S. government's official web portal to all federal, state and local government web resources and services.